Time,TemperatureF,DewpointF,PressureIn,WindDirection,WindDirectionDegrees,WindSpeedMPH,WindSpeedGustMPH,Humidity,HourlyPrecipIn,Conditions,Clouds,dailyrainin,SoftwareType,DateUTC
2013-06-02 00:02:00,74.1,64.0,29.94,SW,225,2.0,4.0,71,0.00,,,0.00,meteohub,2013-06-02 04:02:00,
2013-06-02 00:07:00,74.1,64.0,29.94,SW,225,4.0,10.0,71,0.00,,,0.00,meteohub,2013-06-02 04:07:00,
2013-06-02 00:12:00,73.9,63.9,29.94,SSE,158,4.0,10.0,71,0.00,,,0.00,meteohub,2013-06-02 04:12:00,
2013-06-02 00:17:00,73.8,63.7,29.94,WSW,248,2.0,9.0,71,0.00,,,0.00,meteohub,2013-06-02 04:17:00,
2013-06-02 00:22:00,73.8,64.2,29.94,SW,225,3.0,9.0,72,0.00,,,0.00,meteohub,2013-06-02 04:22:00,
2013-06-02 00:27:00,73.8,64.2,29.94,South,180,0.0,5.0,72,0.00,,,0.00,meteohub,2013-06-02 04:27:00,
2013-06-02 00:32:00,73.8,63.7,29.94,SSW,202,5.0,6.0,71,0.00,,,0.00,meteohub,2013-06-02 04:32:00,
2013-06-02 00:37:00,73.8,63.7,29.94,South,180,3.0,8.0,71,0.00,,,0.00,meteohub,2013-06-02 04:37:00,
2013-06-02 00:42:00,73.6,64.0,29.94,WSW,248,3.0,8.0,72,0.00,,,0.00,meteohub,2013-06-02 04:42:00,
2013-06-02 00:47:00,73.4,63.9,29.94,SSW,202,3.0,8.0,72,0.00,,,0.00,meteohub,2013-06-02 04:47:00,
2013-06-02 00:52:00,73.4,63.9,29.94,WSW,248,5.0,6.0,72,0.00,,,0.00,meteohub,2013-06-02 04:52:00,
2013-06-02 00:57:00,73.2,64.0,29.94,SW,225,4.0,6.0,73,0.00,,,0.00,meteohub,2013-06-02 04:57:00,
2013-06-02 01:02:00,73.2,64.0,29.94,SSE,158,2.0,6.0,73,0.00,,,0.00,meteohub,2013-06-02 05:02:00,
2013-06-02 01:07:00,73.0,63.9,29.94,SW,225,2.0,6.0,73,0.00,,,0.00,meteohub,2013-06-02 05:07:00,
2013-06-02 01:12:00,73.0,64.2,29.94,South,180,4.0,8.0,74,0.00,,,0.00,meteohub,2013-06-02 05:12:00,
2013-06-02 01:17:00,72.9,64.0,29.94,South,180,6.0,8.0,74,0.00,,,0.00,meteohub,2013-06-02 05:17:00,
2013-06-02 01:22:00,72.7,63.9,29.94,SSW,202,1.0,8.0,74,0.00,,,0.00,meteohub,2013-06-02 05:22:00,
2013-06-02 01:27:00,72.7,63.9,29.94,WSW,248,6.0,8.0,74,0.00,,,0.00,meteohub,2013-06-02 05:27:00,
2013-06-02 01:32:00,72.7,64.2,29.94,SSW,202,3.0,9.0,75,0.00,,,0.00,meteohub,2013-06-02 05:32:00,
2013-06-02 01:37:00,72.5,64.0,29.94,SW,225,2.0,9.0,75,0.00,,,0.00,meteohub,2013-06-02 05:37:00,
2013-06-02 01:42:00,72.3,64.0,29.94,South,180,2.0,9.0,75,0.00,,,0.00,meteohub,2013-06-02 05:42:00,
2013-06-02 01:47:00,72.3,64.4,29.94,West,270,3.0,7.0,76,0.00,,,0.00,meteohub,2013-06-02 05:47:00,
2013-06-02 01:52:00,72.1,64.2,29.94,South,180,2.0,8.0,76,0.00,,,0.00,meteohub,2013-06-02 05:52:00,
2013-06-02 01:57:00,72.1,64.2,29.94,SSE,158,3.0,8.0,76,0.00,,,0.00,meteohub,2013-06-02 05:57:00,
2013-06-02 02:02:00,72.1,64.2,29.94,SW,225,2.0,10.0,76,0.00,,,0.00,meteohub,2013-06-02 06:02:00,
2013-06-02 02:07:00,72.1,64.6,29.94,South,180,4.0,10.0,77,0.00,,,0.00,meteohub,2013-06-02 06:07:00,
2013-06-02 02:12:00,72.0,64.4,29.94,SSW,202,5.0,10.0,77,0.00,,,0.00,meteohub,2013-06-02 06:12:00,
2013-06-02 02:17:00,72.0,64.4,29.94,South,180,3.0,6.0,77,0.00,,,0.00,meteohub,2013-06-02 06:17:00,
2013-06-02 02:22:00,71.8,64.2,29.94,SSW,202,2.0,6.0,77,0.00,,,0.00,meteohub,2013-06-02 06:22:00,
2013-06-02 02:27:00,71.6,64.0,29.94,SSE,158,3.0,6.0,77,0.00,,,0.00,meteohub,2013-06-02 06:27:00,
2013-06-02 02:37:00,71.4,64.6,29.94,SSE,158,3.0,6.0,79,0.00,,,0.00,meteohub,2013-06-02 06:37:00,
2013-06-02 02:42:00,71.2,64.4,29.91,SSE,158,1.0,5.0,79,0.00,,,0.00,meteohub,2013-06-02 06:42:00,
2013-06-02 02:47:00,71.2,64.4,29.91,WNW,292,1.0,6.0,79,0.00,,,0.00,meteohub,2013-06-02 06:47:00,
2013-06-02 02:52:00,71.1,64.6,29.91,SSE,158,1.0,6.0,80,0.00,,,0.00,meteohub,2013-06-02 06:52:00,
2013-06-02 02:57:00,71.1,64.6,29.91,SSW,202,4.0,6.0,80,0.00,,,0.00,meteohub,2013-06-02 06:57:00,
2013-06-02 03:02:00,71.1,64.6,29.91,SSE,158,2.0,4.0,80,0.00,,,0.00,meteohub,2013-06-02 07:02:00,
2013-06-02 03:07:00,70.9,64.4,29.91,South,180,3.0,4.0,80,0.00,,,0.00,meteohub,2013-06-02 07:07:00,
2013-06-02 03:12:00,70.9,64.8,29.91,SW,225,8.0,8.0,81,0.00,,,0.00,meteohub,2013-06-02 07:12:00,
2013-06-02 03:17:00,70.9,64.8,29.91,WSW,248,2.0,8.0,81,0.00,,,0.00,meteohub,2013-06-02 07:17:00,
2013-06-02 03:22:00,70.9,64.8,29.91,South,180,1.0,8.0,81,0.00,,,0.00,meteohub,2013-06-02 07:22:00,
2013-06-02 03:27:00,70.7,64.6,29.91,South,180,4.0,8.0,81,0.00,,,0.00,meteohub,2013-06-02 07:27:00,
2013-06-02 03:32:00,70.7,64.6,29.91,SSW,202,2.0,8.0,81,0.00,,,0.00,meteohub,2013-06-02 07:32:00,
2013-06-02 03:37:00,70.5,64.8,29.91,South,180,1.0,8.0,82,0.00,,,0.00,meteohub,2013-06-02 07:37:00,
2013-06-02 03:42:00,70.5,64.8,29.91,South,180,5.0,5.0,82,0.00,,,0.00,meteohub,2013-06-02 07:42:00,
2013-06-02 03:47:00,70.3,64.6,29.91,South,180,4.0,6.0,82,0.00,,,0.00,meteohub,2013-06-02 07:47:00,
2013-06-02 03:52:00,70.3,64.9,29.91,South,180,3.0,6.0,83,0.00,,,0.00,meteohub,2013-06-02 07:52:00,
2013-06-02 03:57:00,70.2,64.8,29.91,SSW,202,2.0,6.0,83,0.00,,,0.00,meteohub,2013-06-02 07:57:00,
2013-06-02 04:02:00,70.0,64.6,29.91,WSW,248,2.0,6.0,83,0.00,,,0.00,meteohub,2013-06-02 08:02:00,
2013-06-02 04:07:00,70.0,64.9,29.91,NW,315,6.0,6.0,84,0.00,,,0.00,meteohub,2013-06-02 08:07:00,
2013-06-02 04:12:00,69.8,64.8,29.91,South,180,2.0,8.0,84,0.00,,,0.00,meteohub,2013-06-02 08:12:00,
2013-06-02 04:17:00,69.8,64.8,29.91,South,180,1.0,8.0,84,0.00,,,0.00,meteohub,2013-06-02 08:17:00,
2013-06-02 04:22:00,69.6,64.9,29.91,SSW,202,5.0,7.0,85,0.00,,,0.00,meteohub,2013-06-02 08:22:00,
2013-06-02 04:27:00,69.4,64.8,29.91,South,180,0.0,7.0,85,0.00,,,0.00,meteohub,2013-06-02 08:27:00,
2013-06-02 04:32:00,69.4,65.1,29.91,SW,225,5.0,5.0,86,0.00,,,0.00,meteohub,2013-06-02 08:32:00,
2013-06-02 04:37:00,69.4,65.1,29.91,South,180,6.0,8.0,86,0.00,,,0.00,meteohub,2013-06-02 08:37:00,
2013-06-02 04:42:00,69.3,64.9,29.91,South,180,0.0,8.0,86,0.00,,,0.00,meteohub,2013-06-02 08:42:00,
2013-06-02 04:47:00,69.3,64.9,29.91,SW,225,4.0,8.0,86,0.00,,,0.00,meteohub,2013-06-02 08:47:00,
2013-06-02 04:52:00,69.3,65.3,29.91,West,270,2.0,6.0,87,0.00,,,0.00,meteohub,2013-06-02 08:52:00,
2013-06-02 04:57:00,69.1,65.3,29.91,SSW,202,2.0,6.0,88,0.00,,,0.00,meteohub,2013-06-02 08:57:00,
2013-06-02 05:02:00,69.1,65.1,29.91,SSW,202,3.0,4.0,87,0.00,,,0.00,meteohub,2013-06-02 09:02:00,
2013-06-02 05:07:00,69.1,65.1,29.91,South,180,1.0,4.0,87,0.00,,,0.00,meteohub,2013-06-02 09:07:00,
2013-06-02 05:12:00,68.9,65.1,29.91,ESE,112,3.0,3.0,88,0.00,,,0.00,meteohub,2013-06-02 09:12:00,
2013-06-02 05:17:00,68.9,65.1,29.91,SSW,202,4.0,4.0,88,0.00,,,0.00,meteohub,2013-06-02 09:17:00,
2013-06-02 05:22:00,68.9,65.5,29.91,SW,225,2.0,4.0,89,0.00,,,0.00,meteohub,2013-06-02 09:22:00,
2013-06-02 05:27:00,68.7,65.3,29.94,SW,225,1.0,4.0,89,0.00,,,0.00,meteohub,2013-06-02 09:27:00,
2013-06-02 05:32:00,68.9,65.5,29.94,South,180,3.0,4.0,89,0.00,,,0.00,meteohub,2013-06-02 09:32:00,
2013-06-02 05:37:00,68.9,65.5,29.94,SSW,202,2.0,4.0,89,0.00,,,0.00,meteohub,2013-06-02 09:37:00,
2013-06-02 05:42:00,68.9,65.5,29.94,SW,225,1.0,4.0,89,0.00,,,0.00,meteohub,2013-06-02 09:42:00,
2013-06-02 05:47:00,68.9,65.5,29.94,SSW,202,2.0,4.0,89,0.00,,,0.00,meteohub,2013-06-02 09:47:00,
2013-06-02 05:52:00,68.9,65.5,29.94,West,270,2.0,4.0,89,0.00,,,0.00,meteohub,2013-06-02 09:52:00,
2013-06-02 05:57:00,68.9,65.5,29.94,SSW,202,1.0,5.0,89,0.00,,,0.00,meteohub,2013-06-02 09:57:00,
2013-06-02 06:02:00,69.1,65.7,29.94,South,180,2.0,5.0,89,0.00,,,0.00,meteohub,2013-06-02 10:02:00,
2013-06-02 06:07:00,69.1,65.7,29.94,SSE,158,3.0,6.0,89,0.00,,,0.00,meteohub,2013-06-02 10:07:00,
2013-06-02 06:12:00,69.1,65.7,29.91,South,180,2.0,6.0,89,0.00,,,0.00,meteohub,2013-06-02 10:12:00,
2013-06-02 06:17:00,69.3,65.8,29.91,SSW,202,2.0,6.0,89,0.00,,,0.00,meteohub,2013-06-02 10:17:00,
2013-06-02 06:22:00,69.3,65.8,29.91,SW,225,0.0,6.0,89,0.00,,,0.00,meteohub,2013-06-02 10:22:00,
2013-06-02 06:27:00,69.4,66.0,29.94,WSW,248,4.0,7.0,89,0.00,,,0.00,meteohub,2013-06-02 10:27:00,
2013-06-02 06:32:00,69.6,66.2,29.94,SW,225,3.0,7.0,89,0.00,,,0.00,meteohub,2013-06-02 10:32:00,
2013-06-02 06:37:00,69.8,66.0,29.94,SSE,158,1.0,7.0,88,0.00,,,0.00,meteohub,2013-06-02 10:37:00,
2013-06-02 06:42:00,69.8,66.0,29.94,SSE,158,2.0,6.0,88,0.00,,,0.00,meteohub,2013-06-02 10:42:00,
2013-06-02 06:47:00,70.0,66.0,29.94,South,180,1.0,6.0,87,0.00,,,0.00,meteohub,2013-06-02 10:47:00,
2013-06-02 06:52:00,70.2,66.0,29.94,SSE,158,2.0,6.0,87,0.00,,,0.00,meteohub,2013-06-02 10:52:00,
2013-06-02 06:57:00,70.3,66.2,29.94,SSW,202,6.0,8.0,87,0.00,,,0.00,meteohub,2013-06-02 10:57:00,
2013-06-02 07:02:00,70.5,66.2,29.94,SSE,158,3.0,9.0,86,0.00,,,0.00,meteohub,2013-06-02 11:02:00,
2013-06-02 07:07:00,70.7,66.4,29.94,South,180,2.0,9.0,86,0.00,,,0.00,meteohub,2013-06-02 11:07:00,
2013-06-02 07:12:00,71.1,66.4,29.94,South,180,3.0,9.0,85,0.00,,,0.00,meteohub,2013-06-02 11:12:00,
2013-06-02 07:17:00,71.2,66.6,29.94,SW,225,2.0,8.0,85,0.00,,,0.00,meteohub,2013-06-02 11:17:00,
2013-06-02 07:22:00,71.4,66.4,29.94,WSW,248,3.0,7.0,84,0.00,,,0.00,meteohub,2013-06-02 11:22:00,
2013-06-02 07:27:00,71.6,66.2,29.91,SW,225,4.0,11.0,83,0.00,,,0.00,meteohub,2013-06-02 11:27:00,
2013-06-02 07:32:00,72.0,66.2,29.91,SW,225,2.0,11.0,82,0.00,,,0.00,meteohub,2013-06-02 11:32:00,
2013-06-02 07:37:00,72.1,66.4,29.91,South,180,3.0,8.0,82,0.00,,,0.00,meteohub,2013-06-02 11:37:00,
2013-06-02 07:42:00,72.5,66.7,29.91,SW,225,2.0,8.0,82,0.00,,,0.00,meteohub,2013-06-02 11:42:00,
2013-06-02 07:47:00,72.7,66.6,29.91,SW,225,2.0,6.0,81,0.00,,,0.00,meteohub,2013-06-02 11:47:00,
2013-06-02 07:52:00,72.9,66.7,29.91,West,270,3.0,6.0,81,0.00,,,0.00,meteohub,2013-06-02 11:52:00,
2013-06-02 07:57:00,73.2,66.4,29.91,ESE,112,4.0,5.0,79,0.00,,,0.00,meteohub,2013-06-02 11:57:00,
2013-06-02 08:02:00,73.2,66.4,29.91,WSW,248,3.0,11.0,79,0.00,,,0.00,meteohub,2013-06-02 12:02:00,
2013-06-02 08:07:00,73.6,66.4,29.91,NE,45,3.0,11.0,78,0.00,,,0.00,meteohub,2013-06-02 12:07:00,
2013-06-02 08:12:00,73.8,66.4,29.91,South,180,3.0,11.0,78,0.00,,,0.00,meteohub,2013-06-02 12:12:00,
2013-06-02 08:17:00,74.1,66.4,29.91,South,180,3.0,9.0,77,0.00,,,0.00,meteohub,2013-06-02 12:17:00,
2013-06-02 08:22:00,74.5,66.4,29.91,SW,225,2.0,9.0,76,0.00,,,0.00,meteohub,2013-06-02 12:22:00,
2013-06-02 08:27:00,74.8,66.4,29.91,SW,225,4.0,9.0,75,0.00,,,0.00,meteohub,2013-06-02 12:27:00,
2013-06-02 08:32:00,75.2,66.7,29.91,SSE,158,2.0,9.0,75,0.00,,,0.00,meteohub,2013-06-02 12:32:00,
2013-06-02 08:37:00,75.4,66.6,29.91,South,180,3.0,8.0,74,0.00,,,0.00,meteohub,2013-06-02 12:37:00,
2013-06-02 08:42:00,75.6,66.4,29.91,WNW,292,4.0,8.0,73,0.00,,,0.00,meteohub,2013-06-02 12:42:00,
2013-06-02 08:47:00,75.9,65.8,29.91,South,180,10.0,10.0,71,0.00,,,0.00,meteohub,2013-06-02 12:47:00,
2013-06-02 08:52:00,76.3,66.2,29.91,SW,225,3.0,11.0,71,0.00,,,0.00,meteohub,2013-06-02 12:52:00,
2013-06-02 08:57:00,76.5,66.0,29.88,SSW,202,2.0,11.0,70,0.00,,,0.00,meteohub,2013-06-02 12:57:00,
2013-06-02 09:02:00,77.0,66.9,29.88,South,180,2.0,10.0,71,0.00,,,0.00,meteohub,2013-06-02 13:02:00,
2013-06-02 09:07:00,77.2,66.2,29.88,SW,225,6.0,8.0,69,0.00,,,0.00,meteohub,2013-06-02 13:07:00,
2013-06-02 09:12:00,77.5,67.5,29.88,WSW,248,1.0,6.0,71,0.00,,,0.00,meteohub,2013-06-02 13:12:00,
2013-06-02 09:17:00,78.3,67.3,29.88,SSW,202,4.0,6.0,69,0.00,,,0.00,meteohub,2013-06-02 13:17:00,
2013-06-02 09:22:00,78.6,66.4,29.88,ESE,112,3.0,10.0,66,0.00,,,0.00,meteohub,2013-06-02 13:22:00,
2013-06-02 09:27:00,78.8,66.0,29.88,SW,225,2.0,10.0,65,0.00,,,0.00,meteohub,2013-06-02 13:27:00,
2013-06-02 09:32:00,79.2,66.7,29.88,South,180,3.0,10.0,66,0.00,,,0.00,meteohub,2013-06-02 13:32:00,
2013-06-02 09:37:00,79.5,65.3,29.88,West,270,12.0,12.0,62,0.00,,,0.00,meteohub,2013-06-02 13:37:00,
2013-06-02 09:42:00,79.9,67.1,29.88,West,270,5.0,12.0,65,0.00,,,0.00,meteohub,2013-06-02 13:42:00,
2013-06-02 09:47:00,80.2,66.0,29.88,SSW,202,1.0,12.0,62,0.00,,,0.00,meteohub,2013-06-02 13:47:00,
2013-06-02 09:52:00,80.2,66.0,29.88,WSW,248,3.0,12.0,62,0.00,,,0.00,meteohub,2013-06-02 13:52:00,
2013-06-02 09:57:00,80.4,66.2,29.88,ENE,68,3.0,11.0,62,0.00,,,0.00,meteohub,2013-06-02 13:57:00,
2013-06-02 10:02:00,80.6,65.8,29.88,WSW,248,3.0,11.0,61,0.00,,,0.00,meteohub,2013-06-02 14:02:00,
2013-06-02 10:07:00,80.8,65.1,29.88,South,180,4.0,9.0,59,0.00,,,0.00,meteohub,2013-06-02 14:07:00,
2013-06-02 10:12:00,81.0,66.2,29.88,West,270,4.0,10.0,61,0.00,,,0.00,meteohub,2013-06-02 14:12:00,
2013-06-02 10:17:00,81.3,67.1,29.88,ESE,112,2.0,10.0,62,0.00,,,0.00,meteohub,2013-06-02 14:17:00,
2013-06-02 10:22:00,81.7,66.4,29.88,South,180,6.0,6.0,60,0.00,,,0.00,meteohub,2013-06-02 14:22:00,
2013-06-02 10:27:00,82.0,67.3,29.88,WSW,248,4.0,7.0,61,0.00,,,0.00,meteohub,2013-06-02 14:27:00,
2013-06-02 10:32:00,82.4,66.2,29.88,SW,225,2.0,7.0,58,0.00,,,0.00,meteohub,2013-06-02 14:32:00,
2013-06-02 10:37:00,82.4,66.2,29.91,WSW,248,4.0,7.0,58,0.00,,,0.00,meteohub,2013-06-02 14:37:00,
2013-06-02 10:42:00,82.6,65.8,29.91,SSW,202,3.0,10.0,57,0.00,,,0.00,meteohub,2013-06-02 14:42:00,
2013-06-02 10:47:00,82.6,64.2,29.91,SSE,158,6.0,10.0,54,0.00,,,0.00,meteohub,2013-06-02 14:47:00,
2013-06-02 10:52:00,82.6,65.3,29.88,SSE,158,3.0,10.0,56,0.00,,,0.00,meteohub,2013-06-02 14:52:00,
2013-06-02 10:57:00,82.9,66.2,29.88,South,180,4.0,10.0,57,0.00,,,0.00,meteohub,2013-06-02 14:57:00,
2013-06-02 11:02:00,83.1,64.8,29.88,SW,225,5.0,10.0,54,0.00,,,0.00,meteohub,2013-06-02 15:02:00,
2013-06-02 11:07:00,83.3,66.0,29.88,NW,315,4.0,9.0,56,0.00,,,0.00,meteohub,2013-06-02 15:07:00,
2013-06-02 11:12:00,83.5,65.1,29.88,West,270,2.0,9.0,54,0.00,,,0.00,meteohub,2013-06-02 15:12:00,
2013-06-02 11:17:00,83.8,66.0,29.88,SW,225,3.0,7.0,55,0.00,,,0.00,meteohub,2013-06-02 15:17:00,
2013-06-02 11:22:00,83.8,64.4,29.88,WSW,248,6.0,9.0,52,0.00,,,0.00,meteohub,2013-06-02 15:22:00,
2013-06-02 11:27:00,83.8,64.4,29.88,South,180,3.0,9.0,52,0.00,,,0.00,meteohub,2013-06-02 15:27:00,
2013-06-02 11:32:00,84.0,64.6,29.88,WNW,292,2.0,9.0,52,0.00,,,0.00,meteohub,2013-06-02 15:32:00,
2013-06-02 11:37:00,84.4,64.2,29.88,SSE,158,4.0,6.0,51,0.00,,,0.00,meteohub,2013-06-02 15:37:00,
2013-06-02 11:42:00,84.4,63.7,29.88,South,180,3.0,13.0,50,0.00,,,0.00,meteohub,2013-06-02 15:42:00,
2013-06-02 11:47:00,84.7,63.5,29.88,WSW,248,3.0,13.0,49,0.00,,,0.00,meteohub,2013-06-02 15:47:00,
2013-06-02 11:52:00,84.7,63.0,29.88,SSE,158,4.0,12.0,48,0.00,,,0.00,meteohub,2013-06-02 15:52:00,
2013-06-02 11:57:00,85.1,64.4,29.88,SW,225,6.0,9.0,50,0.00,,,0.00,meteohub,2013-06-02 15:57:00,
2013-06-02 12:02:00,85.1,62.1,29.88,WNW,292,4.0,13.0,46,0.00,,,0.00,meteohub,2013-06-02 16:02:00,
2013-06-02 12:07:00,85.1,62.6,29.85,SW,225,4.0,13.0,47,0.00,,,0.00,meteohub,2013-06-02 16:07:00,
2013-06-02 12:12:00,85.1,63.1,29.85,West,270,4.0,13.0,48,0.00,,,0.00,meteohub,2013-06-02 16:12:00,
2013-06-02 12:17:00,85.5,63.5,29.85,SSE,158,6.0,12.0,48,0.00,,,0.00,meteohub,2013-06-02 16:17:00,
2013-06-02 12:27:00,86.0,61.5,29.85,SSE,158,6.0,9.0,44,0.00,,,0.00,meteohub,2013-06-02 16:27:00,
2013-06-02 12:32:00,85.8,61.3,29.85,SSW,202,0.0,13.0,44,0.00,,,0.00,meteohub,2013-06-02 16:32:00,
2013-06-02 12:37:00,86.2,61.0,29.85,South,180,4.0,13.0,43,0.00,,,0.00,meteohub,2013-06-02 16:37:00,
2013-06-02 12:42:00,86.2,60.4,29.85,West,270,6.0,17.0,42,0.00,,,0.00,meteohub,2013-06-02 16:42:00,
2013-06-02 12:47:00,86.4,60.6,29.85,South,180,3.0,17.0,42,0.00,,,0.00,meteohub,2013-06-02 16:47:00,
2013-06-02 12:52:00,86.4,60.6,29.85,South,180,3.0,17.0,42,0.00,,,0.00,meteohub,2013-06-02 16:52:00,
2013-06-02 12:57:00,86.4,60.6,29.85,SW,225,3.0,15.0,42,0.00,,,0.00,meteohub,2013-06-02 16:57:00,
2013-06-02 13:02:00,86.9,60.4,29.85,South,180,4.0,11.0,41,0.00,,,0.00,meteohub,2013-06-02 17:02:00,
2013-06-02 13:07:00,86.7,58.1,29.85,SSW,202,6.0,10.0,38,0.00,,,0.00,meteohub,2013-06-02 17:07:00,
2013-06-02 13:12:00,86.5,57.9,29.85,WSW,248,11.0,16.0,38,0.00,,,0.00,meteohub,2013-06-02 17:12:00,
2013-06-02 13:17:00,86.7,58.8,29.85,SSE,158,7.0,16.0,39,0.00,,,0.00,meteohub,2013-06-02 17:17:00,
2013-06-02 13:27:00,86.9,59.0,29.85,South,180,4.0,13.0,39,0.00,,,0.00,meteohub,2013-06-02 17:27:00,
2013-06-02 13:32:00,86.9,58.3,29.85,SSW,202,8.0,13.0,38,0.00,,,0.00,meteohub,2013-06-02 17:32:00,
2013-06-02 13:37:00,86.9,59.0,29.82,South,180,9.0,11.0,39,0.00,,,0.00,meteohub,2013-06-02 17:37:00,
2013-06-02 13:42:00,86.9,59.0,29.82,South,180,2.0,11.0,39,0.00,,,0.00,meteohub,2013-06-02 17:42:00,
2013-06-02 13:47:00,86.9,58.3,29.82,SE,135,11.0,11.0,38,0.00,,,0.00,meteohub,2013-06-02 17:47:00,
2013-06-02 13:52:00,86.9,59.0,29.82,SSW,202,3.0,11.0,39,0.00,,,0.00,meteohub,2013-06-02 17:52:00,
2013-06-02 13:57:00,86.9,58.3,29.82,SSW,202,2.0,11.0,38,0.00,,,0.00,meteohub,2013-06-02 17:57:00,
2013-06-02 14:02:00,86.7,58.1,29.82,ESE,112,3.0,11.0,38,0.00,,,0.00,meteohub,2013-06-02 18:02:00,
2013-06-02 14:07:00,86.7,58.8,29.82,WSW,248,3.0,16.0,39,0.00,,,0.00,meteohub,2013-06-02 18:07:00,
2013-06-02 14:12:00,86.9,59.7,29.82,South,180,6.0,16.0,40,0.00,,,0.00,meteohub,2013-06-02 18:12:00,
2013-06-02 14:17:00,86.9,59.7,29.82,South,180,6.0,14.0,40,0.00,,,0.00,meteohub,2013-06-02 18:17:00,
2013-06-02 14:22:00,86.9,58.3,29.79,SSW,202,5.0,14.0,38,0.00,,,0.00,meteohub,2013-06-02 18:22:00,
2013-06-02 14:27:00,86.9,59.0,29.79,West,270,5.0,19.0,39,0.00,,,0.00,meteohub,2013-06-02 18:27:00,
2013-06-02 14:32:00,86.7,59.5,29.79,WNW,292,5.0,19.0,40,0.00,,,0.00,meteohub,2013-06-02 18:32:00,
2013-06-02 14:37:00,86.7,59.5,29.82,South,180,2.0,19.0,40,0.00,,,0.00,meteohub,2013-06-02 18:37:00,
2013-06-02 14:42:00,86.7,59.5,29.82,SW,225,4.0,15.0,40,0.00,,,0.00,meteohub,2013-06-02 18:42:00,
2013-06-02 14:47:00,86.5,59.4,29.82,WSW,248,4.0,15.0,40,0.00,,,0.00,meteohub,2013-06-02 18:47:00,
2013-06-02 14:52:00,86.5,60.1,29.82,West,270,2.0,14.0,41,0.00,,,0.00,meteohub,2013-06-02 18:52:00,
2013-06-02 14:57:00,86.5,60.1,29.82,SSW,202,5.0,14.0,41,0.00,,,0.00,meteohub,2013-06-02 18:57:00,
2013-06-02 15:02:00,86.4,59.9,29.82,SSW,202,3.0,10.0,41,0.00,,,0.00,meteohub,2013-06-02 19:02:00,
2013-06-02 15:07:00,86.2,59.7,29.82,ESE,112,11.0,13.0,41,0.00,,,0.00,meteohub,2013-06-02 19:07:00,
2013-06-02 15:12:00,86.2,60.4,29.82,SSE,158,13.0,13.0,42,0.00,,,0.00,meteohub,2013-06-02 19:12:00,
2013-06-02 15:17:00,86.0,59.5,29.82,WSW,248,4.0,13.0,41,0.00,,,0.00,meteohub,2013-06-02 19:17:00,
2013-06-02 15:22:00,86.0,60.3,29.82,WSW,248,5.0,13.0,42,0.00,,,0.00,meteohub,2013-06-02 19:22:00,
2013-06-02 15:27:00,85.8,59.4,29.82,WSW,248,4.0,13.0,41,0.00,,,0.00,meteohub,2013-06-02 19:27:00,
2013-06-02 15:32:00,85.8,58.6,29.82,SSW,202,6.0,12.0,40,0.00,,,0.00,meteohub,2013-06-02 19:32:00,
2013-06-02 15:37:00,85.8,57.9,29.79,SE,135,3.0,13.0,39,0.00,,,0.00,meteohub,2013-06-02 19:37:00,
2013-06-02 15:42:00,85.8,57.9,29.79,SW,225,8.0,13.0,39,0.00,,,0.00,meteohub,2013-06-02 19:42:00,
2013-06-02 15:47:00,85.8,57.9,29.79,South,180,3.0,13.0,39,0.00,,,0.00,meteohub,2013-06-02 19:47:00,
2013-06-02 15:52:00,85.6,57.9,29.82,WNW,292,6.0,24.0,39,0.00,,,0.00,meteohub,2013-06-02 19:52:00,
2013-06-02 15:57:00,85.6,58.5,29.82,South,180,8.0,24.0,40,0.00,,,0.00,meteohub,2013-06-02 19:57:00,
2013-06-02 16:02:00,85.5,59.0,29.82,SSE,158,6.0,24.0,41,0.00,,,0.00,meteohub,2013-06-02 20:02:00,
2013-06-02 16:07:00,85.3,59.0,29.79,South,180,6.0,17.0,41,0.00,,,0.00,meteohub,2013-06-02 20:07:00,
2013-06-02 16:12:00,85.3,59.0,29.79,WNW,292,5.0,17.0,41,0.00,,,0.00,meteohub,2013-06-02 20:12:00,
2013-06-02 16:17:00,85.3,59.0,29.79,SSW,202,5.0,17.0,41,0.00,,,0.00,meteohub,2013-06-02 20:17:00,
2013-06-02 16:22:00,84.9,59.9,29.76,South,180,4.0,17.0,43,0.00,,,0.00,meteohub,2013-06-02 20:22:00,
2013-06-02 16:27:00,84.7,59.7,29.76,NNW,338,12.0,17.0,43,0.00,,,0.00,meteohub,2013-06-02 20:27:00,
2013-06-02 16:32:00,84.6,60.8,29.76,SW,225,10.0,12.0,45,0.00,,,0.00,meteohub,2013-06-02 20:32:00,
2013-06-02 16:37:00,84.2,61.2,29.76,ESE,112,5.0,15.0,46,0.00,,,0.00,meteohub,2013-06-02 20:37:00,
2013-06-02 16:42:00,84.0,61.0,29.79,SE,135,4.0,15.0,46,0.00,,,0.00,meteohub,2013-06-02 20:42:00,
2013-06-02 16:47:00,83.8,61.5,29.79,NNW,338,4.0,15.0,47,0.00,,,0.00,meteohub,2013-06-02 20:47:00,
2013-06-02 16:52:00,83.7,61.3,29.79,WSW,248,6.0,13.0,47,0.00,,,0.00,meteohub,2013-06-02 20:52:00,
2013-06-02 16:57:00,83.5,61.7,29.79,West,270,4.0,13.0,48,0.00,,,0.00,meteohub,2013-06-02 20:57:00,
2013-06-02 17:02:00,83.1,62.1,29.79,South,180,2.0,12.0,49,0.00,,,0.00,meteohub,2013-06-02 21:02:00,
2013-06-02 17:07:00,82.8,62.2,29.79,South,180,4.0,12.0,50,0.00,,,0.00,meteohub,2013-06-02 21:07:00,
2013-06-02 17:12:00,82.4,62.4,29.79,SSE,158,4.0,19.0,51,0.00,,,0.00,meteohub,2013-06-02 21:12:00,
2013-06-02 17:17:00,82.0,62.6,29.79,WSW,248,6.0,19.0,52,0.00,,,0.00,meteohub,2013-06-02 21:17:00,
2013-06-02 17:22:00,81.7,63.0,29.76,SSW,202,3.0,19.0,53,0.00,,,0.00,meteohub,2013-06-02 21:22:00,
2013-06-02 17:27:00,81.5,62.8,29.76,SSE,158,6.0,15.0,53,0.00,,,0.00,meteohub,2013-06-02 21:27:00,
2013-06-02 17:32:00,81.5,63.3,29.76,SW,225,6.0,14.0,54,0.00,,,0.00,meteohub,2013-06-02 21:32:00,
2013-06-02 17:37:00,81.1,63.5,29.76,WSW,248,3.0,12.0,55,0.00,,,0.00,meteohub,2013-06-02 21:37:00,
2013-06-02 17:42:00,80.8,63.1,29.76,WSW,248,4.0,16.0,55,0.00,,,0.00,meteohub,2013-06-02 21:42:00,
2013-06-02 17:47:00,80.6,63.5,29.76,WSW,248,6.0,16.0,56,0.00,,,0.00,meteohub,2013-06-02 21:47:00,
2013-06-02 17:52:00,80.4,64.2,29.79,SSW,202,4.0,11.0,58,0.00,,,0.00,meteohub,2013-06-02 21:52:00,
2013-06-02 17:57:00,80.2,64.6,29.79,SW,225,7.0,7.0,59,0.00,,,0.00,meteohub,2013-06-02 21:57:00,
2013-06-02 18:02:00,80.1,64.4,29.79,WNW,292,2.0,9.0,59,0.00,,,0.00,meteohub,2013-06-02 22:02:00,
2013-06-02 18:07:00,79.9,64.8,29.82,South,180,3.0,9.0,60,0.00,,,0.00,meteohub,2013-06-02 22:07:00,
2013-06-02 18:12:00,79.9,64.8,29.82,South,180,4.0,11.0,60,0.00,,,0.00,meteohub,2013-06-02 22:12:00,
2013-06-02 18:17:00,79.7,65.1,29.82,SW,225,3.0,11.0,61,0.00,,,0.00,meteohub,2013-06-02 22:17:00,
2013-06-02 18:22:00,79.5,65.3,29.82,ENE,68,3.0,11.0,62,0.00,,,0.00,meteohub,2013-06-02 22:22:00,
2013-06-02 18:27:00,79.3,65.1,29.82,SW,225,3.0,5.0,62,0.00,,,0.00,meteohub,2013-06-02 22:27:00,
2013-06-02 18:32:00,79.2,64.9,29.82,SSE,158,2.0,7.0,62,0.00,,,0.00,meteohub,2013-06-02 22:32:00,
2013-06-02 18:37:00,79.0,65.3,29.82,SW,225,1.0,7.0,63,0.00,,,0.00,meteohub,2013-06-02 22:37:00,
2013-06-02 18:42:00,78.8,65.1,29.82,NE,45,1.0,8.0,63,0.00,,,0.00,meteohub,2013-06-02 22:42:00,
2013-06-02 18:47:00,78.6,65.5,29.82,SSW,202,6.0,8.0,64,0.00,,,0.00,meteohub,2013-06-02 22:47:00,
2013-06-02 18:52:00,78.3,65.1,29.79,SW,225,1.0,8.0,64,0.00,,,0.00,meteohub,2013-06-02 22:52:00,
2013-06-02 18:57:00,78.1,64.9,29.79,ENE,68,5.0,8.0,64,0.00,,,0.00,meteohub,2013-06-02 22:57:00,
2013-06-02 19:02:00,77.9,65.1,29.79,South,180,3.0,9.0,65,0.00,,,0.00,meteohub,2013-06-02 23:02:00,
2013-06-02 19:07:00,77.5,64.8,29.82,SE,135,2.0,13.0,65,0.00,,,0.00,meteohub,2013-06-02 23:07:00,
2013-06-02 19:12:00,77.4,64.8,29.82,South,180,4.0,13.0,65,0.00,,,0.00,meteohub,2013-06-02 23:12:00,
2013-06-02 19:17:00,77.0,64.4,29.82,WSW,248,5.0,9.0,65,0.00,,,0.00,meteohub,2013-06-02 23:17:00,
2013-06-02 19:22:00,76.8,64.6,29.82,South,180,5.0,6.0,66,0.00,,,0.00,meteohub,2013-06-02 23:22:00,
2013-06-02 19:27:00,76.6,64.4,29.82,WSW,248,2.0,9.0,66,0.00,,,0.00,meteohub,2013-06-02 23:27:00,
2013-06-02 19:32:00,76.3,64.0,29.82,SSE,158,1.0,9.0,66,0.00,,,0.00,meteohub,2013-06-02 23:32:00,
2013-06-02 19:37:00,76.1,64.4,29.85,WSW,248,3.0,9.0,67,0.00,,,0.00,meteohub,2013-06-02 23:37:00,
2013-06-02 19:42:00,75.9,64.6,29.85,South,180,3.0,8.0,68,0.00,,,0.00,meteohub,2013-06-02 23:42:00,
2013-06-02 19:47:00,75.7,64.4,29.85,SW,225,6.0,8.0,68,0.00,,,0.00,meteohub,2013-06-02 23:47:00,
2013-06-02 19:52:00,75.6,64.2,29.85,South,180,2.0,8.0,68,0.00,,,0.00,meteohub,2013-06-02 23:52:00,
2013-06-02 19:57:00,75.4,64.0,29.85,SSW,202,3.0,9.0,68,0.00,,,0.00,meteohub,2013-06-02 23:57:00,
2013-06-02 20:02:00,75.4,64.6,29.85,SSE,158,3.0,9.0,69,0.00,,,0.00,meteohub,2013-06-03 00:02:00,
2013-06-02 20:07:00,75.2,64.4,29.85,South,180,3.0,6.0,69,0.00,,,0.00,meteohub,2013-06-03 00:07:00,
2013-06-02 20:12:00,75.2,64.4,29.85,South,180,2.0,6.0,69,0.00,,,0.00,meteohub,2013-06-03 00:12:00,
2013-06-02 20:17:00,75.0,64.2,29.85,SSE,158,2.0,6.0,69,0.00,,,0.00,meteohub,2013-06-03 00:17:00,
2013-06-02 20:22:00,75.0,64.6,29.85,SW,225,1.0,6.0,70,0.00,,,0.00,meteohub,2013-06-03 00:22:00,
2013-06-02 20:27:00,74.7,64.6,29.85,SW,225,1.0,6.0,71,0.00,,,0.00,meteohub,2013-06-03 00:27:00,
2013-06-02 20:32:00,74.3,64.8,29.85,SSW,202,2.0,6.0,72,0.00,,,0.00,meteohub,2013-06-03 00:32:00,
2013-06-02 20:37:00,73.9,64.8,29.85,SE,135,2.0,6.0,73,0.00,,,0.00,meteohub,2013-06-03 00:37:00,
2013-06-02 20:42:00,73.8,64.6,29.85,SW,225,2.0,4.0,73,0.00,,,0.00,meteohub,2013-06-03 00:42:00,
2013-06-02 20:47:00,73.4,64.6,29.85,SW,225,4.0,4.0,74,0.00,,,0.00,meteohub,2013-06-03 00:47:00,
2013-06-02 20:52:00,73.2,64.8,29.85,West,270,3.0,4.0,75,0.00,,,0.00,meteohub,2013-06-03 00:52:00,
2013-06-02 20:57:00,73.0,64.6,29.85,South,180,3.0,5.0,75,0.00,,,0.00,meteohub,2013-06-03 00:57:00,
2013-06-02 21:02:00,72.9,64.4,29.85,NW,315,3.0,5.0,75,0.00,,,0.00,meteohub,2013-06-03 01:02:00,
2013-06-02 21:07:00,72.7,64.2,29.85,ESE,112,2.0,6.0,75,0.00,,,0.00,meteohub,2013-06-03 01:07:00,
2013-06-02 21:12:00,72.5,64.6,29.85,South,180,2.0,6.0,76,0.00,,,0.00,meteohub,2013-06-03 01:12:00,
2013-06-02 21:17:00,72.3,64.4,29.85,South,180,0.0,6.0,76,0.00,,,0.00,meteohub,2013-06-03 01:17:00,
2013-06-02 21:22:00,72.1,64.6,29.85,SSW,202,0.0,6.0,77,0.00,,,0.00,meteohub,2013-06-03 01:22:00,
2013-06-02 21:27:00,72.0,64.4,29.85,SSW,202,2.0,6.0,77,0.00,,,0.00,meteohub,2013-06-03 01:27:00,
2013-06-02 21:32:00,71.8,64.6,29.85,South,180,3.0,5.0,78,0.00,,,0.00,meteohub,2013-06-03 01:32:00,
2013-06-02 21:37:00,71.6,64.4,29.85,SW,225,1.0,5.0,78,0.00,,,0.00,meteohub,2013-06-03 01:37:00,
2013-06-02 21:42:00,71.4,64.6,29.85,South,180,0.0,4.0,79,0.00,,,0.00,meteohub,2013-06-03 01:42:00,
2013-06-02 21:47:00,71.2,64.4,29.85,SSW,202,2.0,6.0,79,0.00,,,0.00,meteohub,2013-06-03 01:47:00,
2013-06-02 21:52:00,71.2,64.4,29.85,SSE,158,4.0,6.0,79,0.00,,,0.00,meteohub,2013-06-03 01:52:00,
2013-06-02 21:57:00,71.1,64.2,29.85,WSW,248,1.0,6.0,79,0.00,,,0.00,meteohub,2013-06-03 01:57:00,
2013-06-02 22:02:00,71.1,64.2,29.85,SSW,202,2.0,6.0,79,0.00,,,0.00,meteohub,2013-06-03 02:02:00,
2013-06-02 22:07:00,70.9,64.4,29.85,South,180,3.0,11.0,80,0.00,,,0.00,meteohub,2013-06-03 02:07:00,
2013-06-02 22:12:00,70.7,64.2,29.85,SSW,202,3.0,11.0,80,0.00,,,0.00,meteohub,2013-06-03 02:12:00,
2013-06-02 22:17:00,70.7,64.2,29.85,South,180,2.0,11.0,80,0.00,,,0.00,meteohub,2013-06-03 02:17:00,
2013-06-02 22:22:00,70.5,64.0,29.85,SSW,202,4.0,6.0,80,0.00,,,0.00,meteohub,2013-06-03 02:22:00,
2013-06-02 22:27:00,70.3,63.9,29.85,SW,225,2.0,6.0,80,0.00,,,0.00,meteohub,2013-06-03 02:27:00,
2013-06-02 22:32:00,70.3,63.9,29.85,SW,225,0.0,6.0,80,0.00,,,0.00,meteohub,2013-06-03 02:32:00,
2013-06-02 22:37:00,70.2,64.0,29.85,South,180,0.0,6.0,81,0.00,,,0.00,meteohub,2013-06-03 02:37:00,
2013-06-02 22:47:00,70.0,63.9,29.85,SE,135,3.0,6.0,81,0.00,,,0.00,meteohub,2013-06-03 02:47:00,
2013-06-02 22:52:00,69.8,63.7,29.85,South,180,1.0,6.0,81,0.00,,,0.00,meteohub,2013-06-03 02:52:00,
2013-06-02 22:57:00,69.8,63.7,29.85,South,180,3.0,8.0,81,0.00,,,0.00,meteohub,2013-06-03 02:57:00,
2013-06-02 23:02:00,69.6,63.5,29.85,SW,225,0.0,8.0,81,0.00,,,0.00,meteohub,2013-06-03 03:02:00,
2013-06-02 23:07:00,69.6,63.5,29.85,South,180,5.0,8.0,81,0.00,,,0.00,meteohub,2013-06-03 03:07:00,
2013-06-02 23:12:00,69.4,63.3,29.85,SSE,158,4.0,5.0,81,0.00,,,0.00,meteohub,2013-06-03 03:12:00,
2013-06-02 23:17:00,69.3,63.1,29.85,South,180,3.0,5.0,81,0.00,,,0.00,meteohub,2013-06-03 03:17:00,
2013-06-02 23:27:00,69.1,63.0,29.85,NNW,338,1.0,6.0,81,0.00,,,0.00,meteohub,2013-06-03 03:27:00,
2013-06-02 23:32:00,68.9,62.8,29.85,SSW,202,2.0,6.0,81,0.00,,,0.00,meteohub,2013-06-03 03:32:00,
2013-06-02 23:37:00,68.9,63.1,29.88,South,180,4.0,6.0,82,0.00,,,0.00,meteohub,2013-06-03 03:37:00,
2013-06-02 23:42:00,68.9,63.1,29.88,WSW,248,1.0,6.0,82,0.00,,,0.00,meteohub,2013-06-03 03:42:00,
2013-06-02 23:47:00,68.7,63.0,29.88,WNW,292,2.0,6.0,82,0.00,,,0.00,meteohub,2013-06-03 03:47:00,
2013-06-02 23:52:00,68.5,62.8,29.88,SW,225,3.0,6.0,82,0.00,,,0.00,meteohub,2013-06-03 03:52:00,
2013-06-02 23:57:00,68.5,62.8,29.88,South,180,4.0,5.0,82,0.00,,,0.00,meteohub,2013-06-03 03:57:00,